Simultaneous Nadir Overpasses (SNOs) Predictions

Prediction of SNOs between NOAA-20 and METOP-B Satellite Orbit:

Table of predicted SNOs for the next 14.0 days since TLE Epoch: 2/1/2025
Index Date (NOAA-20) Time (NOAA-20) Lat,Lon (NOAA-20) SZA (NOAA-20 ) Date (METOP-B) Time (METOP-B) Lat,Lon (METOP-B) SZA (METOP-B ) Distance(km) Time Diff (sec)
1 02/14/2025 07:54:56 74.38, 49.01 87.76 02/14/2025 07:56:04 74.33, 51.50 87.53 75.02 68
2 02/14/2025 08:45:39 -74.32,-143.53 92.32 02/14/2025 08:46:47 -74.30,-141.25 92.52 68.47 68
3 02/14/2025 09:36:20 74.09, 24.37 87.40 02/14/2025 09:37:31 74.07, 25.53 87.29 35.54 71
4 02/14/2025 10:27:03 -74.03,-168.18 92.68 02/14/2025 10:28:15 -73.99,-167.34 92.79 26.04 72
5 02/14/2025 11:17:45 73.85, -0.42 87.11 02/14/2025 11:18:58 73.82, -0.42 87.05 3.62 73
6 02/14/2025 12:08:29 -73.84, 166.91 92.92 02/14/2025 12:09:40 -73.84, 166.95 92.95 1.26 71
7 02/14/2025 12:59:14 73.81, -25.69 87.03 02/14/2025 13:00:20 73.81, -25.78 87.02 2.93 66
8 02/14/2025 13:49:59 -73.85, 141.52 92.93 02/14/2025 13:51:02 -73.83, 141.59 92.98 2.95 63
9 02/14/2025 14:40:44 73.81, -51.08 87.02 02/14/2025 14:41:42 73.80, -51.14 86.99 2.24 58
10 02/14/2025 15:31:28 -73.81, 116.25 93.01 02/14/2025 15:32:24 -73.82, 116.23 93.01 1.96 56
11 02/14/2025 16:22:14 73.82, -76.47 87.00 02/14/2025 16:23:04 73.80, -76.50 86.96 2.77 50
12 02/14/2025 17:12:58 -73.81, 90.87 93.03 02/14/2025 17:13:46 -73.82, 90.87 93.04 0.38 48
13 02/14/2025 18:03:44 73.83,-101.85 86.98 02/14/2025 18:04:25 73.84,-101.74 86.98 3.85 41
14 02/14/2025 18:54:28 -73.82, 65.48 93.04 02/14/2025 18:55:08 -73.81, 65.51 93.07 1.62 40
15 02/14/2025 19:45:13 73.78,-127.13 86.91 02/14/2025 19:45:48 73.78,-127.22 86.90 2.82 35
16 02/14/2025 20:35:57 -73.78, 40.21 93.12 02/14/2025 20:36:30 -73.80, 40.15 93.10 3.26 33
17 02/14/2025 21:26:43 73.79,-152.51 86.89 02/14/2025 21:27:10 73.77,-152.57 86.87 2.43 27
18 02/14/2025 22:17:27 -73.78, 14.82 93.13 02/14/2025 22:17:52 -73.79, 14.80 93.13 1.50 25
19 02/14/2025 23:08:13 73.79,-177.90 86.87 02/14/2025 23:08:32 73.77,-177.93 86.84 3.18 19
20 02/14/2025 23:58:57 -73.79, -10.57 93.15 02/14/2025 23:59:14 -73.79, -10.56 93.16 0.32 17
21 02/15/2025 00:49:43 73.80, 156.71 86.86 02/15/2025 00:49:53 73.81, 156.82 86.86 3.76 10
22 02/15/2025 01:40:27 -73.79, -35.96 93.17 02/15/2025 01:40:36 -73.78, -35.92 93.19 2.04 9
23 02/15/2025 02:31:12 73.76, 131.44 86.78 02/15/2025 02:31:16 73.75, 131.35 86.78 2.78 4



Historial Predications of SNOs between NOAA-20 and METOP-B
